User: anonymous   Login
Location: Skalnate Pleso
(49.1889°N, 20.2450°E)
Time: 17:39:20
(UTC+01:00)
Language:

CZ-4C R/B - Orbit

View from above orbital plane
View from above orbital plane
View from above satellite
View from above satellite

Ground track
Ground track

The orbit data is extracted from the following two-line orbital elements,

1 36416U 10009D   20025.13359654 -.00000023  00000-0  42165-4 0  9993
2 36416  63.4251 228.8507 0480822 355.2416   4.4133 13.69561159494744
Epoch (UTC): 25 January 2020 03:12:22
Eccentricity: 0.0480822
inclination: 63.4251°
perigee height: 646 km
apogee height: 1356 km
right ascension of ascending node: 228.8507°
argument of perigee: 355.2416°
revolutions per day: 13.69561159
mean anomaly at epoch: 4.4133°
orbit number at epoch: 49474

The dashed part of the orbit path shows where the satellite is in the earth's shadow,  

DLR